• Join FlightAware (Why Join?)
  • Login
  • US Flag 
06:05PM EST


 

Airport Tracker/Info


-or-


 

Live Flight TrackerFlight Track Log ✈ N935SS ✈ 10-Apr-2013 ✈ KHPN - KYIP

Flight Track Log - Related Links

Times and Time Zones

All times are in EDT time to prevent confusion due to time zone crossing. See the N935SS flight status page for this flight to view local times or setup timezone preferences in your user account.

Time Position Orientation Groundspeed Altitude Reporting Facility
EDT Latitude Longitude Course Direction KTS MPH feet Rate Location/Type
06:00AM 41.1000 -73.7500 306° West 198 228 2,000  Level New York TRACON
06:01AM 41.1167 -73.8167 288° West 194 223 4,600 2,632 Climbing New York TRACON
06:02AM 41.1500 -73.8833 304° West 231 266 7,000 2,611 Climbing New York TRACON
06:03AM 41.1858 -73.9361 312° West 256 295 9,300 2,833 Climbing New York Center
06:04AM 41.2236 -74.0067 305° West 272 313 12,100 3,025 Climbing New York Center
06:05AM 41.2731 -74.1003 305° West 277 319 15,300 2,450 Climbing New York Center
06:06AM 41.3158 -74.1928 306° West  Level FlightAware Approximate
06:06AM 41.3164 -74.1797 306° West 284 327 17,000  Level New York Center
06:07AM 41.3756 -74.2989 304° West 330 380 17,100 1,190 Climbing New York Center
06:08AM 41.4325 -74.4097 304° West 363 418 19,400 2,400 Climbing New York Center
06:09AM 41.4833 -74.5178 302° West 363 418 21,900 2,300 Climbing New York Center
06:10AM 41.5217 -74.6197 297° West 352 405 24,000 2,164 Climbing New York Center
06:11AM 41.5681 -74.7303 299° West 340 391 26,300 2,132 Climbing New York Center
06:12AM 41.6161 -74.8442 299° West 340 391 28,300 2,034 Climbing New York Center
06:13AM 41.6644 -74.9556 300° West 345 397 30,300 1,750 Climbing New York Center
06:14AM 41.7142 -75.0725 300° West 350 403 31,800 1,513 Climbing New York Center
06:15AM 41.7619 -75.1894 299° West 355 409 33,300 1,678 Climbing New York Center
06:16AM 41.8194 -75.3214 300° West 372 428 35,100 1,623 Climbing New York Center
06:17AM 41.8711 -75.4419 300° West 372 428 36,600 1,438 Climbing New York Center
06:18AM 41.9206 -75.5597 299° West 372 428 38,000 706 Climbing New York Center
06:19AM 41.9736 -75.6864 299° West 372 428 38,000 504 Level New York Center
06:20AM 42.0244 -75.8128 298° West 385 443 39,000 745 Climbing New York Center
06:22AM 42.1117 -76.0286 299° West 386 444 40,000 373 Climbing Cleveland Center
06:23AM 42.1625 -76.1567 298° West 386 444 40,000  Level Cleveland Center
06:24AM 42.2075 -76.2967 293° West 392 451 40,000  Level Cleveland Center
06:25AM 42.2519 -76.4311 294° West 398 458 40,000  Level Cleveland Center
06:26AM 42.2964 -76.5686 294° West 398 458 40,000  Level Cleveland Center
06:27AM 42.3386 -76.7036 293° West 398 458 40,000  Level Cleveland Center
06:28AM 42.3828 -76.8442 293° West 398 458 40,000  Level Cleveland Center
06:29AM 42.4000 -76.9167 288° West 400 460 40,000  Level Toronto Center
06:29AM 42.4247 -76.9825 297° West 398 458 40,000  Level Cleveland Center
06:30AM 42.4686 -77.1181 294° West 404 465 40,000  Level Cleveland Center
06:31AM 42.5103 -77.2564 292° West 404 465 40,000  Level Cleveland Center
06:32AM 42.5539 -77.3953 293° West 404 465 40,000  Level Cleveland Center
06:33AM 42.5994 -77.5425 293° West 411 473 40,000  Level Cleveland Center
06:34AM 42.6425 -77.6814 293° West 411 473 40,000  Level Cleveland Center
06:35AM 42.6744 -77.7903 292° West 406 467 40,000  Level Cleveland Center
06:36AM 42.7219 -77.9464 293° West 406 467 40,000  Level Cleveland Center
06:37AM 42.7647 -78.0858 293° West 406 467 40,000  Level Cleveland Center
06:38AM 42.8050 -78.2231 292° West 406 467 40,000 -100 Level Cleveland Center
06:39AM 42.8475 -78.3631 293° West 406 467 39,800 -850 Descending Cleveland Center
06:40AM 42.8875 -78.5033 291° West 406 467 38,300 -1,500 Descending Cleveland Center
06:41AM 42.9275 -78.6494 291° West 411 473 36,800 -1,500 Descending Cleveland Center
06:42AM 42.9406 -78.8022 277° West 406 467 35,300 -1,588 Descending Cleveland Center
06:43AM 42.9333 -78.9000 264° West 410 472 34,100 -765 Descending Toronto Center
06:44AM 42.9500 -79.0667 278° West 410 472 34,000 -50 Descending Toronto Center
06:45AM 42.9500 -79.2167 270° West 410 472 34,000  Level Toronto Center
06:46AM 42.9500 -79.3833 270° West 420 483 34,000 -150 Level Toronto Center
06:47AM 42.9667 -79.5500 278° West 420 483 33,700 -900 Descending Toronto Center
06:48AM 42.9667 -79.7000 270° West 420 483 32,200 -1,450 Descending Toronto Center
06:49AM 42.9833 -79.8667 278° West 410 472 30,800 -1,500 Descending Toronto Center
06:50AM 42.9833 -80.0167 270° West 410 472 29,200 -1,500 Descending Toronto Center
06:51AM 43.0000 -80.1500 280° West 410 472 27,800 -1,550 Descending Toronto Center
06:52AM 43.0000 -80.3333 270° West 410 472 26,100 -1,550 Descending Toronto Center
06:53AM 43.0000 -80.4833 270° West 400 460 24,700 -1,050 Descending Toronto Center
06:54AM 43.0167 -80.6167 280° West 390 449 24,000 -350 Descending Toronto Center
06:55AM 43.0167 -80.7667 270° West 400 460 24,000  Level Toronto Center
06:56AM 43.0167 -80.9333 270° West 400 460 24,000 -700 Level Toronto Center
06:57AM 43.0167 -81.0667 270° West 390 449 22,600 -1,550 Descending Toronto Center
06:58AM 43.0000 -81.2000 260° West 360 414 20,900 -1,800 Descending Toronto Center
06:59AM 42.9667 -81.3500 253° West 360 414 19,000 -1,800 Descending Toronto Center
07:00AM 42.9333 -81.4833 251° West 370 426 17,300 -1,800 Descending Toronto Center
07:01AM 42.9167 -81.6167 260° West 360 414 15,400 -1,800 Descending Toronto Center
07:02AM 42.8833 -81.7333 249° West 350 403 13,700 -1,706 Descending Toronto Center
07:02AM 42.8683 -81.8239 257° West 346 398 12,500 -1,000 Descending Cleveland Center
07:03AM 42.8419 -81.9308 251° West 330 380 12,000 -250 Descending Cleveland Center
07:04AM 42.8158 -82.0322 251° West 304 350 12,000 -200 Level Cleveland Center
07:05AM 42.7917 -82.1308 252° West 290 334 11,600 -500 Descending Cleveland Center
07:06AM 42.7653 -82.2292 250° West 284 327 11,000 -550 Descending Cleveland Center
07:07AM 42.7408 -82.3217 250° West 284 327 10,500 -1,100 Descending Cleveland Center
07:08AM 42.7186 -82.4117 251° West 267 307 8,800 -1,750 Descending Cleveland Center
07:09AM 42.7025 -82.5044 257° West 257 296 7,000 -1,800 Descending Cleveland Center
07:10AM 42.7008 -82.6003 269° West 257 296 5,200 -1,290 Descending Cleveland Center
07:11AM 42.6917 -82.6481 255° West 237 273 5,000 -200 Descending Cleveland Center
07:11AM 42.6764 -82.6842 240° Southwest 250 288 5,000  Level Cleveland Center
07:12AM 42.6694 -82.7350 259° West 261 300 5,000  Level Cleveland Center
07:12AM 42.6581 -82.7742 248° West 245 282 5,000  Level Cleveland Center
07:13AM 42.6506 -82.8444 262° West 250 288 5,000  Level Cleveland Center
07:13AM 42.6458 -82.8669 254° West 245 282 5,000  Level Cleveland Center
07:14AM 42.6406 -82.9258 263° West 248 285 5,000  Level Cleveland Center
07:14AM 42.6317 -82.9594 250° West 251 289 5,000  Level Cleveland Center
07:15AM 42.6239 -83.0239 261° West 246 283 5,000  Level Cleveland Center
07:16AM 42.6072 -83.1194 257° West 244 281 5,000  Level Cleveland Center
07:17AM 42.5950 -83.2061 259° West 254 292 5,000  Level Cleveland Center
07:18AM 42.5800 -83.3072 259° West 254 292 5,000  Level Cleveland Center
07:19AM 42.5656 -83.3939 257° West 237 273 5,000  Level Cleveland Center
07:20AM 42.5506 -83.4892 258° West 238 274 5,000  Level Cleveland Center
07:21AM 42.5333 -83.5897 257° West 238 274 5,000  Level Cleveland Center
07:22AM 42.4983 -83.6558 234° Southwest 242 278 5,000 -466 Level Cleveland Center
07:23AM 42.4447 -83.7122 218° Southwest 243 280 4,100 -984 Descending Cleveland Center
07:24AM 42.3828 -83.7653 212° Southwest 260 299 3,000 -569 Descending Cleveland Center
07:25AM 42.3292 -83.8161 215° Southwest 262 302 3,000  Level Cleveland Center
07:26AM 42.2636 -83.8519 202° Southwest 245 282 3,000  Level Cleveland Center
07:27AM 42.1931 -83.8372 171° South 250 288 3,000  Level Cleveland Center